Location: Unspecified
(0.0000°N, 0.0000°E)
Time: 14:53:17
(UTC+01:00)

ISS - All Passes

Search period start: 24 March 2017 00:00
Search period end: 03 April 2017 01:00
Orbit: 399 x 409 km, 51.6° (Epoch: 24 March)

Date Brightness Start Highest point End Pass type
(mag) Time Alt. Az. Time Alt. Az. Time Alt. Az.
24 Mar - 06:54:21 10° N 06:56:47 19° NE 06:59:13 10° ESE daylight
24 Mar - 08:31:30 10° W 08:33:03 13° SW 08:34:37 10° SSW daylight
24 Mar - 18:29:23 10° SSE 18:30:39 12° SE 18:31:55 10° ESE daylight
24 Mar - 20:04:29 10° WSW 20:06:55 20° NW 20:09:21 10° N visible
25 Mar - 07:37:44 10° WNW 07:40:44 32° SW 07:43:44 10° S daylight
25 Mar - 19:11:26 10° SW 19:14:37 56° NW 19:17:47 10° NNE daylight
26 Mar - 07:45:09 10° NNW 07:48:25 80° NE 07:51:43 10° SE daylight
26 Mar - 19:19:12 10° SSW 19:22:18 43° SE 19:25:24 10° NE daylight
27 Mar - 06:53:17 10° N 06:56:06 26° NE 06:58:56 10° ESE visible
27 Mar - 18:27:52 10° SSE 18:29:58 16° SE 18:32:04 10° E daylight
27 Mar - 20:04:23 10° W 20:06:14 14° NW 20:08:04 10° NNW daylight
28 Mar - 06:03:09 10° NE 06:03:44 10° NE 06:04:21 10° ENE visible
28 Mar - 07:37:19 10° WNW 07:40:01 23° SW 07:42:43 10° S visible
28 Mar - 19:10:51 10° SW 19:13:53 37° NW 19:16:54 10° NNE daylight
29 Mar - 06:44:24 10° NW 06:47:40 69° SW 06:50:57 10° SSE visible
29 Mar - 18:18:19 10° SSW 18:21:32 66° SE 18:24:44 10° NE daylight
30 Mar - 05:52:14 10° NNW 05:55:18 37° NE 05:58:23 10° SE visible
30 Mar - 17:26:35 10° S 17:29:10 22° SE 17:31:44 10° ENE daylight
30 Mar - 19:04:51 10° WNW 19:05:25 10° NW 19:06:01 10° NW daylight
31 Mar - 05:01:04 10° NNE 05:02:55 14° NE 05:04:46 10° E night (unlit)
31 Mar - 06:36:56 10° W 06:39:11 17° SW 06:41:26 10° S visible
31 Mar - 18:10:14 10° WSW 18:13:02 26° NW 18:15:48 10° N daylight
01 Apr - 05:43:37 10° NW 05:46:47 46° SW 05:49:58 10° SSE night (unlit)
01 Apr - 17:17:24 10° SW 17:20:38 83° NW 17:23:52 10° NNE daylight
02 Apr - 04:51:10 10° NNW 04:54:23 54° NE 04:57:37 10° SE night (unlit)
02 Apr - 16:25:20 10° S 16:28:14 30° SE 16:31:08 10° ENE daylight
